Tracking 18980 objects as of 20-Feb-2018
HD Live streaming from Space Station
objects crossing your sky now

COSMOS 807

Track COSMOS 807 now!
10-day predictions
COSMOS 807 is classified as:


NORAD ID: 8744
Int'l Code: 1976-022A
Perigee: 377.8 km
Apogee: 1,205.1 km
Inclination: 82.9 °
Period: 100.5 minutes
Semi major axis: 7162 km
RCS: 2.9772 m2 (large)
Launch date: March 12, 1976
Source: Commonwealth of Independent States (former USSR) (CIS)
Launch site: PLESETSK MISSILE AND SPACE COMPLEX (PKMTR)
aabbcc
Your satellite tracking list
Your tracking list is empty




NASA's NSSDC Master Catalog

Two Line Element Set (TLE):
1  8744U 76022A   18050.88578775 +.00001633 +00000-0 +81752-4 0  9999
2  8744 082.9327 331.9941 0577487 044.9216 357.2584 14.32219136111908
Source of the keplerian elements: AFSPC